Regional Weather Roundup
Issued by NWS

Home | Current Version | Previous Version | Text Only | Print | Product List | Glossary On
Versions: 1 2 3 4 5 6 7 8 9 10 11 12 13 14 15 16 17 18 19 20 21 22 23 24 25 26
731
ASUS42 KFFC 221803
RWRGA
WEATHER ROUNDUP FOR GEORGIA
NATIONAL WEATHER SERVICE PEACHTREE CITY GA
200 PM EDT FRI MAY 22 2015

NOTE: "FAIR" INDICATES FEW OR NO CLOUDS BELOW 12,000 FEET WITH NO
SIGNIFICANT WEATHER AND/OR OBSTRUCTIONS TO VISIBILITY.

* = USE WITH CAUTION. THE STATIONS MARKED WITH AN ASTERISK MAY NOT
REPORT WEATHER SUCH AS PRECIPITATION, FOG, OR THUNDER AND ARE NOT
QUALITY CONTROLLED BY NWS.

THE REMARK "TC" DENOTES TEMPERATURE READING IN DEGREES CELSIUS.

GAZ001>058-221900-
NORTH GEORGIA

CITY           SKY/WX    TMP DP  RH WIND       PRES   REMARKS
ATLANTA        MOSUNNY   73  51  46 VRB7      30.21F
6HR MIN TEMP:  54; 6HR MAX TEMP:  73;

ATHENS         MOSUNNY   75  49  39 VRB6      30.21S HAZE
6HR MIN TEMP:  57; 6HR MAX TEMP:  76;

CHAMBLEE       SUNNY     73  49  42 N5        30.21F
6HR MIN TEMP:  54; 6HR MAX TEMP:  73;

PEACHTREE CITY SUNNY     75  48  38 NE8       30.21F
6HR MIN TEMP:  55; 6HR MAX TEMP:  75;

ROME           SUNNY     71  50  47 N5        30.22F
6HR MIN TEMP:  54; 6HR MAX TEMP:  72;

WEST ATLANTA   SUNNY     73  49  42 VRB5      30.20F
6HR MIN TEMP:  53; 6HR MAX TEMP:  73;

GAINESVILLE    SUNNY     71  47  42 VRB3      30.23F
6HR MIN TEMP:  56; 6HR MAX TEMP:  71;

CARTERSVILLE   SUNNY     70  49  47 NE5       30.23F
6HR MIN TEMP:  52; 6HR MAX TEMP:  71;



CITY           SKY/WX    TMP DP  RH WIND       PRES   REMARKS
DALTON*        SUNNY     68  50  52 W5        30.23F
LAWRENCEVILLE* SUNNY     72  46  40 NE6       30.20F
MARIETTA       MOSUNNY   71  50  46 NW6       30.21F
KENNESAW*      MOSUNNY   70  50  49 VRB6      30.22F
BLAIRSVILLE*     N/A     69  -2   6 W3        30.23F
$$

GAZ059>098-102>109-221900-
CENTRAL GEORGIA

CITY           SKY/WX    TMP DP  RH WIND       PRES   REMARKS
AUGUSTA-BUSH   MOSUNNY   76  49  38 CALM      30.18F
6HR MIN TEMP:  64; 6HR MAX TEMP:  76; 6HR PCP: TRACE;

AUGUSTA-DANIEL MOSUNNY   77  49  37 E7        30.19F
6HR MIN TEMP:  63; 6HR MAX TEMP:  78;

COLUMBUS       SUNNY     75  48  38 VRB3      30.18F
6HR MIN TEMP:  56; 6HR MAX TEMP:  76;

MACON          SUNNY     78  53  41 E8        30.17F
6HR MIN TEMP:  58; 6HR MAX TEMP:  78;

ROBINS AFB     SUNNY     77  55  45 VRB5      30.17S


CITY           SKY/WX    TMP DP  RH WIND       PRES   REMARKS
LAGRANGE*      SUNNY     76  56  50 E5        30.20F
SYLVANIA*      CLOUDY    76  60  57 SE3       30.18S
MILLEDGEVILLE* MOSUNNY   77  57  50 E5        30.19S
$$

GAZ099>101-110>166-221900-
SOUTH GEORGIA

CITY           SKY/WX    TMP DP  RH WIND       PRES   REMARKS
SAVANNAH       PTSUNNY   77  58  51 E7        30.16S
6HR MIN TEMP:  65; 6HR MAX TEMP:  78;

VALDOSTA       MOSUNNY   82  54  36 VRB6      30.15S
ALMA           MOSUNNY   78  53  41 CALM      30.16S
6HR MIN TEMP:  64; 6HR MAX TEMP:  78;

FT STEWART     CLOUDY    79  61  53 NE9       30.12F
ALBANY         SUNNY     79  50  36 NW7       30.18F
HUNTER AFB     MOSUNNY   79  61  54 E12G17    30.14R
MOODY AFB      PTSUNNY   79  52  38 N8        30.14F
BRUNSWICK      PTSUNNY   79  63  57 E10G16    30.15S


CITY           SKY/WX    TMP DP  RH WIND       PRES   REMARKS
BAINBRIDGE*    SUNNY     79  55  44 N7        30.17F
MOULTRIE*      SUNNY     77  52  41 NW5       30.17S
VIDALIA*       PTSUNNY   79  57  47 NE7       30.16S
WAYCROSS*      MOSUNNY   80  54  41 N5        30.15S
DOUGLAS*       MOSUNNY   79  50  36 N6        30.17S
$$



USA.gov is the U.S. government's official web portal to all federal, state and local government web resources and services.